Dewpoint
56 57 56 51 46 45 40 38 44 41 38 38 34 36 37 45 41 40 61 64 65 66 69 69 69 71 70 69 69 67 65 63 62 61 62 62 61 60 60 59 60 60 59 61 59 63 64 65 65
57 57 49 49 43 35 34 42 37 42 42 38 36 46 49 47 57 59 62 65 65 68 69 68 70 70 70 69 67 66 65 63 62 61 60 60 58 58 57 58 59 58 61 60 60 65 65 64 64
56 55 43 44 41 27 27 37 35 39 43 40 38 46 47 50 57 60 63 66 65 69 68 69 71 70 70 69 67 66 64 62 61 61 59 59 60 57 58 59 61 60 60 63 64 64 64 64 64
54 47 45 37 39 40 35 32 39 40 41 41 39 37 56 58 57 60 67 66 66 68 68 71 70 70 69 68 67 65 63 61 60 60 61 62 60 61 57 60 61 58 61 64 63 64 64 63 63
49 44 32 36 34 35 37 38 37 35 33 31 35 41 54 59 60 66 66 66 66 68 69 70 70 69 68 67 66 64 63 61 59 60 61 60 61 60 58 59 60 58 63 63 63 64 63 63 62
46 43 32 22 27 30 32 32 34 34 33 32 32 41 56 61 65 66 66 66 67 67 69 69 69 68 67 66 65 64 62 61 59 60 61 60 61 59 58 58 59 60 61 63 63 63 63 62 60
43 41 32 28 22 21 23 30 30 27 30 29 38 48 58 62 65 65 65 65 67 67 68 68 68 67 66 65 64 63 62 60 61 62 61 61 61 60 56 57 60 62 61 63 62 62 61 59 58
45 40 35 33 26 23 26 24 26 25 21 27 38 49 55 60 64 65 65 65 65 65 66 67 67 66 65 64 63 62 61 59 60 59 59 61 61 60 58 58 62 62 62 62 62 61 60 58 57
45 39 29 30 28 25 30 29 29 27 24 31 45 55 58 61 64 64 64 65 65 66 66 66 65 64 64 62 62 62 61 61 60 59 58 58 58 57 57 57 62 62 62 62 60 60 59 58 57
42 37 31 33 30 28 27 29 27 26 25 34 55 60 61 63 62 62 62 62 63 64 64 65 64 63 62 61 61 60 60 59 58 57 56 56 55 55 57 55 62 60 60 61 60 58 56 52 51
43 36 32 34 32 33 31 31 30 27 25 40 47 57 60 62 61 62 61 62 62 63 63 64 63 62 60 59 59 58 58 56 55 55 55 56 55 54 54 55 60 57 56 58 55 52 51 50 49
40 40 39 36 35 36 36 34 30 29 27 27 49 58 60 61 61 60 61 61 62 62 62 63 62 61 59 58 58 57 55 55 54 55 56 55 55 54 55 56 56 51 50 49 50 50 49 48 46
40 39 38 39 38 38 36 34 35 32 31 30 43 59 59 60 60 60 61 62 62 62 62 62 61 59 58 58 57 55 55 54 54 55 56 55 54 54 55 53 50 46 47 48 49 49 48 45 42
37 37 35 38 38 39 36 35 35 33 36 34 55 57 58 59 60 60 61 61 62 61 61 61 59 58 58 57 56 54 54 54 54 54 55 54 54 54 53 48 45 44 45 46 47 48 46 42 37
37 36 35 35 37 37 39 36 36 33 34 34 45 56 57 58 59 59 60 60 61 61 61 60 58 58 57 57 56 54 54 54 53 53 54 53 52 53 49 44 42 42 42 42 43 43 41 37 35
33 35 29 30 30 36 39 30 30 36 33 30 33 53 56 57 58 59 59 60 60 61 61 60 58 57 57 57 55 54 54 53 52 52 52 51 50 49 43 42 42 40 40 41 40 39 36 33 32
30 25 27 29 31 32 35 29 32 33 36 33 31 34 47 56 58 59 60 60 60 60 60 59 58 57 57 56 55 54 54 53 51 50 50 49 47 44 40 41 41 39 38 38 37 35 33 29 26
16 17 25 28 29 31 32 33 32 33 33 34 32 34 33 49 55 58 59 60 61 61 60 59 58 57 57 56 55 54 53 52 50 48 48 46 44 39 37 40 40 38 37 35 34 31 29 26 23
23 20 20 23 22 32 31 33 32 34 33 34 34 32 34 34 47 57 58 60 60 60 60 59 57 57 56 54 53 53 51 49 49 47 45 43 40 34 35 38 39 38 35 34 31 29 25 24 24
14 14 18 22 21 24 26 28 31 34 34 33 33 33 33 34 35 51 57 58 59 59 60 58 57 57 55 54 53 53 52 49 49 45 41 40 37 32 32 37 38 37 35 32 30 27 25 25 26
8 17 17 18 21 21 25 24 24 30 34 34 33 34 35 35 34 36 55 57 58 58 58 57 57 56 56 55 53 52 48 44 43 39 37 37 36 32 30 35 37 36 35 32 30 27 23 22 27
7 12 14 14 16 14 24 15 21 27 32 33 33 33 33 35 36 35 43 56 56 57 58 57 56 56 56 54 52 48 47 45 45 42 39 35 34 31 29 32 34 35 35 33 30 29 27 25 24
13 14 13 13 14 18 15 15 25 23 25 29 30 32 32 32 36 36 37 53 56 57 56 56 56 56 55 53 51 48 47 46 44 39 34 33 31 30 29 30 32 33 35 33 30 28 26 26 25
16 17 13 19 18 10 11 13 11 23 30 31 30 31 33 33 35 37 36 46 56 57 57 56 55 54 54 52 50 48 46 45 40 37 33 31 30 30 29 29 30 32 33 32 30 29 27 25 24
19 12 8 7 8 6 10 12 11 22 17 24 28 29 33 33 34 36 36 45 54 56 57 56 55 54 52 51 48 48 45 42 40 37 34 31 30 29 29 29 29 30 32 32 30 28 26 25 22
14 13 8 0 6 4 10 11 15 18 22 30 31 32 30 34 34 36 37 44 51 55 56 56 54 53 51 50 48 48 45 42 41 39 35 32 30 29 30 29 30 30 31 31 30 28 26 24 22
16 13 17 11 9 11 11 18 19 24 22 27 28 29 32 33 34 36 38 44 50 55 56 55 55 54 51 50 49 48 45 43 41 38 35 32 31 31 30 31 30 30 30 29 27 25 24 23 23
15 19 7 14 7 5 7 12 7 24 25 26 27 28 27 32 32 35 38 44 49 52 55 55 55 54 52 51 50 47 46 45 40 38 34 31 31 30 31 30 30 29 29 27 26 25 25 24 26
12 12 12 13 10 10 6 9 26 26 20 24 27 28 29 25 31 32 39 45 50 52 54 55 55 53 52 51 49 47 45 44 41 37 35 31 30 30 30 30 29 29 28 26 25 25 25 25 26
11 14 14 7 6 10 13 16 24 29 28 29 29 31 33 31 29 31 38 46 49 52 53 54 55 53 53 52 50 48 45 43 41 36 33 32 31 30 29 29 28 28 27 26 25 24 26 25 25
Wind_Speed
2 2 2 2 4 4 12 12 8 7 8 10 4 3 7 4 8 6 8 12 24 30 27 27 27 26 27 25 23 22 20 18 16 15 15 16 17 17 16 17 16 16 16 16 17 19 18 20 22
2 3 3 4 6 12 12 14 24 29 11 7 5 6 4 6 2 7 16 19 28 27 26 25 27 27 27 27 24 24 21 19 18 17 16 17 17 17 16 18 17 17 16 18 20 18 17 21 22
3 2 6 6 8 24 12 18 36 20 17 8 5 2 4 4 1 19 6 23 31 26 25 23 27 28 28 27 26 24 22 21 19 18 17 17 16 17 20 17 16 15 16 16 18 19 24 23 22
4 3 1 9 25 12 11 11 14 8 14 23 11 16 3 3 7 11 22 26 29 26 24 25 28 29 28 26 25 24 24 22 21 18 19 19 19 19 21 20 16 17 17 17 18 24 23 24 23
2 2 7 10 18 10 21 21 9 8 4 7 5 7 4 3 9 22 28 26 27 24 21 27 29 29 28 27 25 23 24 23 20 18 19 21 19 22 19 20 16 19 18 17 23 25 26 26 26
5 1 7 27 22 14 17 27 10 17 16 20 7 7 5 1 21 24 27 28 25 25 23 25 29 29 28 27 25 24 23 22 21 21 20 20 20 24 21 19 19 19 20 21 23 27 28 28 27
6 6 13 14 13 18 24 9 22 31 22 23 4 8 3 12 15 24 24 26 25 26 26 24 25 27 28 26 26 24 24 21 21 22 21 19 19 22 23 21 20 21 18 21 24 25 28 30 27
7 5 9 13 17 24 11 11 7 22 26 6 15 10 7 13 20 22 22 22 25 26 26 23 24 24 23 22 24 25 24 21 21 20 20 20 20 20 21 21 20 22 22 25 26 29 30 30 28
6 11 29 24 21 25 3 12 8 4 11 7 9 9 8 24 22 24 24 20 22 23 23 25 23 23 22 21 21 22 23 22 21 21 21 18 14 16 18 17 20 23 21 26 29 29 29 28 25
14 17 26 9 26 11 8 9 5 5 17 10 3 3 23 29 31 33 29 27 26 26 26 24 25 24 23 20 20 16 15 19 17 17 16 11 15 14 17 19 20 21 21 28 29 27 24 20 14
16 41 21 13 22 16 21 13 4 9 15 9 19 18 29 30 30 31 29 33 36 30 25 24 25 25 24 20 17 15 13 11 14 17 14 12 14 15 15 14 12 15 16 19 18 16 15 17 16
23 37 29 3 20 15 19 3 14 19 19 8 16 27 32 32 30 30 30 28 28 28 30 27 27 27 23 21 19 16 14 13 12 13 15 15 15 15 12 13 14 16 15 17 15 16 17 19 17
34 38 18 24 29 21 14 26 18 23 15 11 12 24 30 32 35 32 31 28 25 27 28 29 27 27 24 23 19 17 15 14 17 15 13 14 15 15 14 14 14 14 16 16 15 16 17 18 17
13 26 41 32 26 13 30 29 14 23 22 16 13 26 29 32 33 31 29 28 27 27 27 26 31 27 27 23 22 19 16 18 18 17 15 14 14 16 15 15 15 15 16 15 15 16 16 15 17
19 32 33 36 23 28 9 33 40 27 8 18 19 23 24 24 28 33 32 31 30 28 28 29 30 28 27 24 22 19 18 18 17 16 18 17 17 16 15 16 16 16 15 20 19 17 16 16 14
12 14 30 30 36 20 19 49 32 24 24 33 21 23 22 22 19 25 29 30 30 27 29 29 25 30 29 25 21 19 18 19 17 16 15 17 17 18 17 16 16 16 15 17 18 18 16 16 15
13 29 25 26 18 14 31 47 15 21 27 33 29 25 23 19 17 18 23 24 26 28 29 28 26 30 31 26 21 21 21 19 17 16 15 16 18 20 19 17 16 15 16 15 18 14 20 18 17
33 31 26 25 11 27 31 47 30 10 26 32 28 24 26 26 26 21 20 20 24 25 27 30 26 28 26 25 21 18 16 16 18 18 18 18 17 20 18 17 18 17 17 16 15 19 12 16 18
15 15 20 31 29 12 30 38 30 26 25 26 31 27 26 28 18 21 24 26 24 25 26 28 27 27 25 24 23 21 22 20 17 16 19 19 17 18 19 17 19 16 19 17 18 17 23 14 15
28 28 25 23 22 23 35 39 26 23 34 34 30 27 26 16 21 20 23 26 30 28 28 28 29 29 27 25 24 23 24 18 20 15 18 20 20 21 21 21 19 18 18 19 19 20 13 9 11
23 19 14 17 19 29 20 38 39 25 30 27 29 33 28 25 26 24 24 29 27 30 31 32 30 29 27 26 21 17 13 14 9 15 17 19 23 22 20 20 19 19 19 20 20 20 19 21 7
21 16 21 22 17 20 12 36 28 21 30 31 30 29 28 25 24 26 27 28 30 29 29 32 31 32 27 26 26 29 26 24 19 22 18 19 20 21 21 22 21 21 17 19 20 17 16 17 15
12 19 22 21 21 20 25 13 2 21 27 30 34 33 35 34 23 28 28 27 30 26 28 30 30 30 29 30 26 29 27 21 17 17 19 18 16 21 21 22 21 20 18 19 21 19 20 14 11
24 16 21 18 20 28 23 19 18 13 11 19 25 31 33 29 22 28 29 28 29 30 29 30 31 31 28 29 30 27 29 24 22 20 22 18 16 15 19 20 20 19 17 21 21 19 20 17 11
11 19 6 12 16 15 15 19 22 17 30 27 29 32 28 31 25 23 26 28 27 33 34 33 34 32 29 29 29 31 27 31 31 29 26 24 20 16 19 19 20 18 18 18 17 20 18 17 15
24 9 7 11 10 19 21 17 10 31 24 14 14 24 28 25 25 27 28 31 30 31 31 32 34 31 31 30 28 28 27 25 27 27 25 24 23 21 18 18 19 19 17 17 16 15 14 15 13
7 4 9 7 14 8 10 4 8 19 24 17 20 12 21 25 29 30 29 31 30 31 33 34 33 31 32 31 27 24 24 23 24 24 21 20 19 18 20 16 18 17 18 19 19 17 15 15 14
13 6 7 6 5 9 9 17 11 16 19 20 18 15 10 18 20 20 24 28 27 30 30 32 34 31 31 30 30 26 25 20 22 22 24 22 19 19 21 20 20 20 18 18 18 15 14 15 10
13 7 4 7 8 6 6 7 17 21 18 18 16 13 9 17 23 26 24 26 26 26 26 30 34 33 32 30 28 30 27 25 23 23 24 22 21 22 23 20 19 19 18 19 21 20 18 18 15
12 9 9 6 7 7 5 7 28 22 5 19 13 19 9 5 18 22 25 25 25 28 27 27 29 31 31 31 30 28 27 24 25 23 23 23 23 22 22 22 19 18 19 16 19 20 19 20 19
Wind_Direction
288 359 82 96 188 228 223 233 240 236 218 216 230 218 244 237 171 209 148 172 140 154 161 159 161 156 151 145 139 130 130 139 139 139 127 129 126 120 121 113 110 114 120 118 117 113 112 107 100
146 132 66 135 214 218 223 228 236 224 213 316 276 182 226 252 171 126 141 154 147 153 156 160 162 153 147 141 136 129 137 142 143 133 138 139 130 128 128 114 113 118 119 123 114 110 113 102 97
160 120 149 191 220 227 227 220 235 244 242 257 316 272 191 243 81 157 158 152 147 153 156 161 155 152 145 141 137 138 143 144 140 142 147 127 122 130 118 112 108 114 121 113 111 109 104 103 99
168 121 50 232 231 236 222 234 234 253 243 251 243 279 230 215 173 180 145 149 149 151 154 156 154 147 142 139 140 144 145 144 142 152 130 134 136 128 120 114 113 120 120 114 114 113 108 104 99
47 95 221 235 246 239 234 247 233 229 277 251 189 221 239 343 146 142 150 151 153 148 149 150 149 144 141 141 145 147 146 145 144 144 140 136 132 124 123 119 123 124 120 117 117 118 111 106 101
185 153 223 234 235 239 242 243 231 238 242 254 278 236 199 183 139 153 154 153 155 150 148 148 146 143 144 145 148 148 147 146 146 143 139 136 135 129 131 130 130 128 119 116 116 113 107 103 97
205 192 235 245 240 244 240 185 224 241 242 249 220 209 185 163 161 155 156 156 154 153 148 145 144 144 145 148 149 149 146 150 146 142 140 138 134 131 131 135 136 123 127 125 115 110 107 99 101
183 199 238 226 231 251 232 200 223 217 243 250 182 211 183 196 163 149 150 155 158 158 153 145 144 145 146 150 150 148 149 152 146 147 139 141 135 141 135 140 136 122 116 123 114 108 107 104 99
151 234 239 229 214 229 228 225 220 218 211 195 187 162 201 149 150 148 150 152 157 157 153 146 148 146 147 149 148 148 149 140 142 137 135 143 140 142 139 144 131 119 119 119 115 109 105 99 94
195 223 236 209 224 235 234 215 253 197 219 221 208 97 137 151 162 161 165 165 166 159 159 152 148 145 145 148 146 145 148 144 142 138 140 143 147 142 144 145 130 118 125 118 117 113 105 97 89
217 234 224 226 226 236 253 267 254 258 251 213 194 170 159 161 172 168 172 171 172 167 161 158 152 147 148 150 145 141 140 130 135 137 141 139 140 148 149 144 116 98 103 119 111 104 96 95 94
248 242 240 300 231 248 246 257 252 240 239 255 216 170 171 167 174 178 174 172 168 170 171 160 155 151 153 151 154 149 140 134 131 143 144 144 146 145 140 130 117 113 116 112 107 104 103 95 92
244 250 253 242 246 257 272 256 259 253 251 261 225 180 178 177 181 185 177 172 167 170 170 163 156 156 155 155 156 153 140 138 137 141 142 138 141 143 138 129 123 122 120 118 108 109 107 101 96
256 266 255 257 257 257 249 257 263 251 245 244 205 194 187 182 186 183 179 175 173 172 171 167 160 159 158 159 162 156 143 141 143 146 150 143 141 144 140 138 132 130 124 118 116 116 111 105 106
287 271 274 262 254 237 228 262 239 241 270 226 208 204 201 201 188 185 183 179 177 177 171 168 163 160 159 161 161 158 149 148 149 153 153 151 148 147 145 142 137 134 126 117 112 104 105 103 101
282 278 255 260 247 249 208 255 243 230 234 241 218 208 210 214 185 189 186 182 181 176 173 173 170 163 162 163 161 161 156 152 152 153 157 156 155 152 148 144 136 131 126 125 124 124 111 110 110
237 256 254 266 219 205 211 252 257 234 217 227 221 211 212 212 202 191 182 180 184 178 177 176 172 170 165 165 160 162 156 154 152 153 161 163 159 157 154 149 141 131 126 128 130 123 127 123 115
262 260 266 252 239 217 220 242 241 292 218 224 224 201 205 208 208 192 183 185 185 182 177 176 174 172 169 163 156 155 151 152 155 162 168 164 164 159 154 149 147 137 131 129 127 125 113 129 125
296 290 293 278 266 312 247 246 246 233 228 220 226 216 202 207 200 193 191 189 190 190 180 178 172 173 166 165 160 160 167 166 163 168 165 165 164 161 156 154 154 150 149 145 137 127 131 125 125
293 283 281 282 279 249 258 270 274 280 234 222 213 223 224 184 202 193 194 196 197 189 181 179 176 173 174 169 170 174 174 171 167 164 165 166 166 167 164 162 163 157 147 145 146 144 136 136 163
292 264 286 282 298 286 288 261 260 243 252 219 211 214 218 201 196 202 192 199 199 194 185 181 176 176 177 169 168 159 121 116 135 160 168 177 173 171 166 163 161 159 158 162 161 154 150 161 190
277 268 262 274 288 254 189 253 243 216 221 224 215 214 214 208 201 199 195 196 199 198 187 181 177 175 178 169 170 158 167 168 183 182 174 173 173 170 168 166 165 166 163 163 166 161 155 158 168
274 289 278 254 256 263 252 269 212 204 221 219 220 214 217 228 202 192 201 196 196 190 188 180 176 176 173 173 172 167 170 178 168 159 161 170 172 172 171 170 167 168 166 165 166 165 163 162 163
297 300 256 241 250 249 233 214 253 220 210 226 224 217 210 212 205 196 195 197 190 186 183 175 172 175 173 172 167 183 169 160 159 158 167 171 171 168 169 167 170 170 168 171 169 167 168 167 160
300 325 234 211 228 245 216 214 231 264 230 223 218 229 217 212 201 192 190 194 187 186 181 175 173 174 172 175 175 174 177 164 167 172 175 166 174 178 179 169 167 171 171 168 166 167 169 174 177
302 227 263 228 204 220 195 212 205 224 235 223 220 228 213 200 195 198 190 191 188 185 181 175 174 174 172 174 175 179 175 174 171 178 173 177 180 172 173 172 169 167 161 158 157 162 165 165 163
338 247 269 264 266 273 229 163 187 211 219 222 228 185 191 191 193 195 189 191 187 182 180 172 169 174 177 173 173 172 170 181 170 172 168 171 167 158 160 160 161 160 161 159 156 160 159 155 153
312 290 346 259 262 231 233 183 177 170 202 207 199 178 205 197 190 193 186 187 188 183 180 174 171 173 175 173 174 173 169 182 169 161 163 168 158 155 154 156 154 151 148 144 140 138 136 135 127
348 329 328 275 266 257 166 169 4 307 200 198 174 147 199 221 195 191 184 185 180 179 174 178 174 167 175 175 173 173 174 172 166 166 166 163 154 152 152 151 150 149 152 152 147 143 140 135 131
351 292 279 242 288 278 267 80 347 322 223 96 66 57 31 188 201 190 180 181 176 174 176 178 168 169 175 173 170 175 172 167 168 166 158 150 154 152 156 150 151 154 150 149 146 142 139 139 141